星链-1161 (STARLINK-1161 )

导读

STARLINK-1161是美国太空探索技术公司(SpaceX)星链星座的卫星,于2020年1月29日发射入轨,属于星链计划首批组网卫星之一。星链旨在构建全球卫星互联网星座,该卫星承担低轨通信组网任务,为全球偏远区域提供互联网接入服务,推动全球网络覆盖建设。

基本信息
目录编号:
45068
目录名称:
STARLINK-1161
国际标识:
2020-006AA
轨道中心:
EARTH
卫星名称:
星链-1161
卫星全名:
星链-1161 (STARLINK-1161 )
卫星状态:
已陨落 最后检测时间 2025-07-17
发射日期:
2020-01-29 UTC
国别 :
美国 (US)
星等 :
--
轨道信息
数据来源 国际轨道数据
星历时间: 2025-07-17T08:50:18+0800
轨道信息已过期376天
半长轴: 6508.465km
偏心率: 0.0004014
轨道倾角: 52.981°
近地点辐角 319.340°
升交点赤经 152.694°
平近点角 89.369°
近地点: 127.717km
远地点: 132.943km
周期: 87.092分钟
每日圈数: 16.534268
详细信息
固有亮度:
5
最大亮度:
2.5
卫星平台:
Starlink V1.0
覆盖范围:
全球
运营商:
太空探索技术公司
运营商所在国:
美国
制造商(研发单位):
太空探索技术公司
制造商所在国:
美国
使用方式:
暂无
卫星简介
星链(Starlink)计划是由太空探索技术公司(SpaceX)提出的一个巨型低轨卫星互联网星座项目,计划在2019年至2024年间在太空搭建由约1.2万颗卫星组成的“星链”网络,其中1584颗将部署在地球上空550千米处的近地轨道,并从2020年开始工作。该卫星仍在工作。